Time,TemperatureF,DewpointF,PressureIn,WindDirection,WindDirectionDegrees,WindSpeedMPH,WindSpeedGustMPH,Humidity,HourlyPrecipIn,Conditions,Clouds,dailyrainin,SoftwareType,DateUTC
2013-03-16 00:00:00,42.4,29.5,29.76,SW,217,0.0,0.0,60,0.00,,---,0.00,VWS V13.01,2013-03-16 04:00:00,
2013-03-16 00:05:00,42.3,29.8,29.76,SW,223,0.0,0.0,61,0.00,,---,0.00,VWS V13.01,2013-03-16 04:05:00,
2013-03-16 00:10:00,42.3,29.8,29.76,SW,234,0.0,0.0,61,0.00,,---,0.00,VWS V13.01,2013-03-16 04:10:00,
2013-03-16 00:15:00,42.3,29.8,29.76,SW,225,2.0,2.0,61,0.00,,---,0.00,VWS V13.01,2013-03-16 04:15:00,
2013-03-16 00:20:00,42.2,29.7,29.76,SW,235,0.0,0.0,61,0.00,,---,0.00,VWS V13.01,2013-03-16 04:20:00,
2013-03-16 00:25:00,42.2,29.7,29.76,SW,233,0.0,0.0,61,0.00,,---,0.00,VWS V13.01,2013-03-16 04:25:00,
2013-03-16 00:30:00,42.2,30.1,29.76,SW,233,0.0,0.0,62,0.00,,---,0.00,VWS V13.01,2013-03-16 04:30:00,
2013-03-16 00:35:00,42.1,30.0,29.76,SW,233,0.0,0.0,62,0.00,,---,0.00,VWS V13.01,2013-03-16 04:35:00,
2013-03-16 00:40:00,42.0,29.9,29.76,SW,234,0.0,0.0,62,0.00,,---,0.00,VWS V13.01,2013-03-16 04:40:00,
2013-03-16 00:45:00,41.9,29.9,29.76,SW,233,0.0,0.0,62,0.00,,---,0.00,VWS V13.01,2013-03-16 04:45:00,
2013-03-16 00:50:00,41.7,30.0,29.76,SW,233,0.0,0.0,63,0.00,,---,0.00,VWS V13.01,2013-03-16 04:50:00,
2013-03-16 00:55:00,41.6,30.3,29.76,SW,233,0.0,0.0,64,0.00,,---,0.00,VWS V13.01,2013-03-16 04:55:00,
2013-03-16 01:00:00,41.5,30.2,29.76,SW,233,0.0,0.0,64,0.00,,---,0.00,VWS V13.01,2013-03-16 05:00:00,
2013-03-16 01:05:00,41.4,30.5,29.76,SW,233,0.0,0.0,65,0.00,,---,0.00,VWS V13.01,2013-03-16 05:05:00,
2013-03-16 01:10:00,41.3,30.1,29.76,SW,233,0.0,0.0,64,0.00,,---,0.00,VWS V13.01,2013-03-16 05:10:00,
2013-03-16 01:15:00,41.1,29.9,29.76,SW,233,0.0,0.0,64,0.00,,---,0.00,VWS V13.01,2013-03-16 05:15:00,
2013-03-16 01:20:00,40.9,30.1,29.76,SW,233,0.0,0.0,65,0.00,,---,0.00,VWS V13.01,2013-03-16 05:20:00,
2013-03-16 01:25:00,40.7,29.9,29.76,SW,233,0.0,0.0,65,0.00,,---,0.00,VWS V13.01,2013-03-16 05:25:00,
2013-03-16 01:30:00,40.5,29.7,29.76,SW,233,0.0,0.0,65,0.00,,---,0.00,VWS V13.01,2013-03-16 05:30:00,
2013-03-16 01:35:00,40.3,29.9,29.77,SW,233,0.0,0.0,66,0.00,,---,0.00,VWS V13.01,2013-03-16 05:35:00,
2013-03-16 01:40:00,40.2,29.8,29.76,SW,233,0.0,0.0,66,0.00,,---,0.00,VWS V13.01,2013-03-16 05:40:00,
2013-03-16 01:45:00,40.3,29.9,29.76,SW,233,0.0,0.0,66,0.00,,---,0.00,VWS V13.01,2013-03-16 05:45:00,
2013-03-16 01:50:00,40.3,30.2,29.76,SW,233,0.0,0.0,67,0.00,,---,0.00,VWS V13.01,2013-03-16 05:50:00,
2013-03-16 01:55:00,40.3,30.2,29.76,SW,233,0.0,0.0,67,0.00,,---,0.00,VWS V13.01,2013-03-16 05:55:00,
2013-03-16 02:00:00,40.4,30.3,29.76,SW,232,0.0,0.0,67,0.00,,---,0.00,VWS V13.01,2013-03-16 06:00:00,
2013-03-16 02:05:00,40.4,30.7,29.77,SW,233,0.0,0.0,68,0.00,,---,0.00,VWS V13.01,2013-03-16 06:05:00,
2013-03-16 02:10:00,40.4,30.3,29.77,SW,233,0.0,0.0,67,0.00,,---,0.00,VWS V13.01,2013-03-16 06:10:00,
2013-03-16 02:15:00,40.3,30.2,29.77,SW,233,0.0,0.0,67,0.00,,---,0.00,VWS V13.01,2013-03-16 06:15:00,
2013-03-16 02:20:00,40.3,30.6,29.77,SW,233,0.0,0.0,68,0.00,,---,0.00,VWS V13.01,2013-03-16 06:20:00,
2013-03-16 02:25:00,40.4,31.0,29.77,SW,233,0.0,0.0,69,0.00,,---,0.00,VWS V13.01,2013-03-16 06:25:00,
2013-03-16 02:30:00,40.4,30.7,29.77,SW,233,0.0,0.0,68,0.00,,---,0.00,VWS V13.01,2013-03-16 06:30:00,
2013-03-16 02:35:00,40.3,31.0,29.77,SW,233,0.0,0.0,69,0.00,,---,0.00,VWS V13.01,2013-03-16 06:35:00,
2013-03-16 02:40:00,40.3,31.0,29.77,SW,233,0.0,0.0,69,0.00,,---,0.00,VWS V13.01,2013-03-16 06:40:00,
2013-03-16 02:45:00,40.3,31.3,29.77,SW,233,0.0,0.0,70,0.00,,---,0.00,VWS V13.01,2013-03-16 06:45:00,
2013-03-16 02:50:00,40.3,31.0,29.78,SW,233,0.0,0.0,69,0.00,,---,0.00,VWS V13.01,2013-03-16 06:50:00,
2013-03-16 02:55:00,40.3,31.0,29.78,SW,233,0.0,0.0,69,0.00,,---,0.00,VWS V13.01,2013-03-16 06:55:00,
2013-03-16 03:00:00,40.3,31.0,29.78,SW,233,0.0,0.0,69,0.00,,---,0.00,VWS V13.01,2013-03-16 07:00:00,
2013-03-16 03:05:00,40.4,31.4,29.78,SW,233,0.0,0.0,70,0.00,,---,0.00,VWS V13.01,2013-03-16 07:05:00,
2013-03-16 03:10:00,40.4,31.4,29.78,SW,233,0.0,0.0,70,0.00,,---,0.00,VWS V13.01,2013-03-16 07:10:00,
2013-03-16 03:15:00,40.5,31.5,29.78,SW,233,0.0,0.0,70,0.00,,---,0.00,VWS V13.01,2013-03-16 07:15:00,
2013-03-16 03:20:00,40.6,31.6,29.78,SW,233,0.0,0.0,70,0.00,,---,0.00,VWS V13.01,2013-03-16 07:20:00,
2013-03-16 03:25:00,40.9,31.5,29.78,West,280,0.0,1.0,69,0.00,,---,0.00,VWS V13.01,2013-03-16 07:25:00,
2013-03-16 03:30:00,41.2,31.8,29.78,NW,312,1.0,1.0,69,0.00,,---,0.00,VWS V13.01,2013-03-16 07:30:00,
2013-03-16 03:35:00,41.5,31.7,29.78,NW,306,0.0,0.0,68,0.00,,---,0.00,VWS V13.01,2013-03-16 07:35:00,
2013-03-16 03:40:00,41.6,31.8,29.78,NW,310,0.0,0.0,68,0.00,,---,0.00,VWS V13.01,2013-03-16 07:40:00,
2013-03-16 03:45:00,41.6,31.8,29.78,NW,310,0.0,0.0,68,0.00,,---,0.00,VWS V13.01,2013-03-16 07:45:00,
2013-03-16 03:50:00,41.7,31.9,29.79,NW,310,0.0,0.0,68,0.00,,---,0.00,VWS V13.01,2013-03-16 07:50:00,
2013-03-16 03:55:00,41.7,31.9,29.79,NW,309,0.0,0.0,68,0.00,,---,0.00,VWS V13.01,2013-03-16 07:55:00,
2013-03-16 04:00:00,41.7,32.3,29.79,NW,308,0.0,0.0,69,0.00,,---,0.00,VWS V13.01,2013-03-16 08:00:00,
2013-03-16 04:05:00,41.8,32.4,29.79,NW,308,0.0,0.0,69,0.00,,---,0.00,VWS V13.01,2013-03-16 08:05:00,
2013-03-16 04:10:00,41.8,32.4,29.79,NW,307,0.0,0.0,69,0.00,,---,0.00,VWS V13.01,2013-03-16 08:10:00,
2013-03-16 04:15:00,41.8,32.4,29.79,NW,307,0.0,0.0,69,0.00,,---,0.00,VWS V13.01,2013-03-16 08:15:00,
2013-03-16 04:20:00,41.8,32.4,29.79,NW,307,0.0,0.0,69,0.00,,---,0.00,VWS V13.01,2013-03-16 08:20:00,
2013-03-16 04:25:00,41.8,32.4,29.79,NW,310,0.0,0.0,69,0.00,,---,0.00,VWS V13.01,2013-03-16 08:25:00,
2013-03-16 04:30:00,41.7,32.3,29.79,WNW,284,0.0,1.0,69,0.00,,---,0.00,VWS V13.01,2013-03-16 08:30:00,
2013-03-16 04:35:00,41.7,32.3,29.79,WNW,292,0.0,1.0,69,0.00,,---,0.00,VWS V13.01,2013-03-16 08:35:00,
2013-03-16 04:40:00,41.7,32.3,29.79,WNW,298,0.0,0.0,69,0.00,,---,0.00,VWS V13.01,2013-03-16 08:40:00,
2013-03-16 04:45:00,41.6,32.2,29.79,WNW,292,0.0,0.0,69,0.00,,---,0.00,VWS V13.01,2013-03-16 08:45:00,
2013-03-16 04:50:00,41.5,32.1,29.79,ENE,70,0.0,0.0,69,0.00,,---,0.00,VWS V13.01,2013-03-16 08:50:00,
2013-03-16 04:55:00,41.4,32.4,29.79,ENE,69,0.0,0.0,70,0.00,,---,0.00,VWS V13.01,2013-03-16 08:55:00,
2013-03-16 05:00:00,41.3,32.3,29.79,NE,54,0.0,1.0,70,0.00,,---,0.00,VWS V13.01,2013-03-16 09:00:00,
2013-03-16 05:05:00,41.2,31.8,29.80,WNW,303,1.0,2.0,69,0.00,,---,0.00,VWS V13.01,2013-03-16 09:05:00,
2013-03-16 05:10:00,41.1,31.4,29.79,NNW,341,0.0,1.0,68,0.00,,---,0.00,VWS V13.01,2013-03-16 09:10:00,
2013-03-16 05:15:00,41.0,31.3,29.80,North,351,0.0,1.0,68,0.00,,---,0.00,VWS V13.01,2013-03-16 09:15:00,
2013-03-16 05:20:00,40.9,31.2,29.79,ENE,71,0.0,0.0,68,0.00,,---,0.00,VWS V13.01,2013-03-16 09:20:00,
2013-03-16 05:25:00,40.9,31.5,29.80,WNW,302,0.0,1.0,69,0.00,,---,0.00,VWS V13.01,2013-03-16 09:25:00,
2013-03-16 05:30:00,40.8,31.1,29.80,WNW,295,2.0,3.0,68,0.00,,---,0.00,VWS V13.01,2013-03-16 09:30:00,
2013-03-16 05:35:00,40.7,31.0,29.80,West,279,1.0,2.0,68,0.00,,---,0.00,VWS V13.01,2013-03-16 09:35:00,
2013-03-16 05:40:00,40.6,30.9,29.80,WNW,298,0.0,0.0,68,0.00,,---,0.00,VWS V13.01,2013-03-16 09:40:00,
2013-03-16 05:45:00,40.5,30.8,29.80,WNW,296,0.0,0.0,68,0.00,,---,0.00,VWS V13.01,2013-03-16 09:45:00,
2013-03-16 05:49:00,40.4,30.7,29.81,WNW,296,0.0,0.0,68,0.00,,---,0.00,VWS V13.01,2013-03-16 09:49:00,
2013-03-16 05:54:00,40.2,30.9,29.81,WNW,296,0.0,0.0,69,0.00,,---,0.00,VWS V13.01,2013-03-16 09:54:00,
2013-03-16 05:59:00,40.1,30.8,29.81,WNW,296,0.0,0.0,69,0.00,,---,0.00,VWS V13.01,2013-03-16 09:59:00,
2013-03-16 06:04:00,39.9,30.6,29.81,WNW,296,0.0,0.0,69,0.00,,---,0.00,VWS V13.01,2013-03-16 10:04:00,
2013-03-16 06:09:00,39.7,30.4,29.81,NNE,32,0.0,0.0,69,0.00,,---,0.00,VWS V13.01,2013-03-16 10:09:00,
2013-03-16 06:14:00,39.5,29.8,29.81,WNW,294,0.0,1.0,68,0.00,,---,0.00,VWS V13.01,2013-03-16 10:14:00,
2013-03-16 06:19:00,39.4,29.7,29.81,NNE,22,0.0,0.0,68,0.00,,---,0.00,VWS V13.01,2013-03-16 10:19:00,
2013-03-16 06:24:00,39.4,29.0,29.81,WNW,298,2.0,2.0,66,0.00,,---,0.00,VWS V13.01,2013-03-16 10:24:00,
2013-03-16 06:29:00,39.4,29.0,29.81,NW,323,0.0,0.0,66,0.00,,---,0.00,VWS V13.01,2013-03-16 10:29:00,
2013-03-16 06:34:00,39.4,28.6,29.81,WNW,294,1.0,1.0,65,0.00,,---,0.00,VWS V13.01,2013-03-16 10:34:00,
2013-03-16 06:39:00,39.4,28.6,29.81,NW,304,0.0,0.0,65,0.00,,---,0.00,VWS V13.01,2013-03-16 10:39:00,
2013-03-16 06:44:00,39.4,28.2,29.81,NW,305,0.0,0.0,64,0.00,,---,0.00,VWS V13.01,2013-03-16 10:44:00,
2013-03-16 06:49:00,39.4,28.2,29.81,NW,309,0.0,1.0,64,0.00,,---,0.00,VWS V13.01,2013-03-16 10:49:00,
2013-03-16 06:54:00,39.4,27.9,29.82,WNW,296,1.0,4.0,63,0.00,,---,0.00,VWS V13.01,2013-03-16 10:54:00,
2013-03-16 06:59:00,39.3,27.8,29.82,NNE,27,0.0,0.0,63,0.00,,---,0.00,VWS V13.01,2013-03-16 10:59:00,
2013-03-16 07:04:00,39.3,27.8,29.82,WNW,300,0.0,0.0,63,0.00,,---,0.00,VWS V13.01,2013-03-16 11:04:00,
2013-03-16 07:09:00,39.2,27.7,29.82,NW,326,1.0,2.0,63,0.00,,---,0.00,VWS V13.01,2013-03-16 11:09:00,
2013-03-16 07:14:00,39.1,27.6,29.82,WNW,296,0.0,0.0,63,0.00,,---,0.00,VWS V13.01,2013-03-16 11:14:00,
2013-03-16 07:19:00,39.1,27.6,29.81,WNW,302,0.0,2.0,63,0.00,,---,0.00,VWS V13.01,2013-03-16 11:19:00,
2013-03-16 07:24:00,38.9,27.4,29.81,WNW,298,1.0,1.0,63,0.00,,---,0.00,VWS V13.01,2013-03-16 11:24:00,
2013-03-16 07:29:00,38.9,27.4,29.82,NW,307,0.0,0.0,63,0.00,,---,0.00,VWS V13.01,2013-03-16 11:29:00,
2013-03-16 07:34:00,38.9,27.4,29.82,WNW,303,1.0,1.0,63,0.00,,---,0.00,VWS V13.01,2013-03-16 11:34:00,
2013-03-16 07:39:00,38.8,27.3,29.82,NW,304,0.0,0.0,63,0.00,,---,0.00,VWS V13.01,2013-03-16 11:39:00,
2013-03-16 07:44:00,38.8,26.9,29.82,WNW,300,0.0,0.0,62,0.00,,---,0.00,VWS V13.01,2013-03-16 11:44:00,
2013-03-16 07:49:00,38.8,26.9,29.82,WSW,257,0.0,0.0,62,0.00,,---,0.00,VWS V13.01,2013-03-16 11:49:00,
2013-03-16 07:54:00,38.8,26.9,29.82,NNE,24,0.0,0.0,62,0.00,,---,0.00,VWS V13.01,2013-03-16 11:54:00,
2013-03-16 07:59:00,38.9,26.6,29.83,WNW,290,1.0,3.0,61,0.00,,---,0.00,VWS V13.01,2013-03-16 11:59:00,
2013-03-16 08:04:00,39.0,26.7,29.82,NE,40,1.0,2.0,61,0.00,,---,0.00,VWS V13.01,2013-03-16 12:04:00,
2013-03-16 08:09:00,39.0,26.7,29.82,WNW,296,1.0,1.0,61,0.00,,---,0.00,VWS V13.01,2013-03-16 12:09:00,
2013-03-16 08:14:00,39.0,26.7,29.83,NW,311,1.0,2.0,61,0.00,,---,0.00,VWS V13.01,2013-03-16 12:14:00,
2013-03-16 08:19:00,39.0,26.7,29.83,WNW,302,1.0,1.0,61,0.00,,---,0.00,VWS V13.01,2013-03-16 12:19:00,
2013-03-16 08:24:00,39.0,26.7,29.83,WNW,298,3.0,3.0,61,0.00,,---,0.00,VWS V13.01,2013-03-16 12:24:00,
2013-03-16 08:29:00,39.0,26.7,29.83,NW,304,0.0,0.0,61,0.00,,---,0.00,VWS V13.01,2013-03-16 12:29:00,
2013-03-16 08:34:00,39.1,26.8,29.82,WNW,288,1.0,1.0,61,0.00,,---,0.00,VWS V13.01,2013-03-16 12:34:00,
2013-03-16 08:39:00,39.1,26.8,29.83,NW,308,1.0,3.0,61,0.00,,---,0.00,VWS V13.01,2013-03-16 12:39:00,
2013-03-16 08:44:00,39.2,26.9,29.83,NNE,26,2.0,2.0,61,0.00,,---,0.00,VWS V13.01,2013-03-16 12:44:00,
2013-03-16 08:49:00,39.3,26.6,29.83,NE,55,3.0,3.0,60,0.00,,---,0.00,VWS V13.01,2013-03-16 12:49:00,
2013-03-16 08:54:00,39.5,26.8,29.83,WNW,291,1.0,3.0,60,0.00,,---,0.00,VWS V13.01,2013-03-16 12:54:00,
2013-03-16 08:59:00,39.6,27.3,29.83,NE,54,1.0,4.0,61,0.00,,---,0.00,VWS V13.01,2013-03-16 12:59:00,
2013-03-16 09:04:00,39.7,27.4,29.83,WNW,300,3.0,3.0,61,0.00,,---,0.00,VWS V13.01,2013-03-16 13:04:00,
2013-03-16 09:09:00,39.8,27.5,29.83,SE,142,0.0,1.0,61,0.00,,---,0.00,VWS V13.01,2013-03-16 13:09:00,
2013-03-16 09:14:00,39.9,27.2,29.83,East,86,0.0,1.0,60,0.00,,---,0.00,VWS V13.01,2013-03-16 13:14:00,
2013-03-16 09:19:00,40.0,27.6,29.82,SE,127,1.0,3.0,61,0.00,,---,0.00,VWS V13.01,2013-03-16 13:19:00,
2013-03-16 09:24:00,40.0,27.6,29.82,NE,46,2.0,2.0,61,0.00,,---,0.00,VWS V13.01,2013-03-16 13:24:00,
2013-03-16 09:29:00,40.1,27.8,29.82,NE,56,3.0,3.0,61,0.00,,---,0.00,VWS V13.01,2013-03-16 13:29:00,
2013-03-16 09:34:00,40.3,28.3,29.82,East,80,2.0,2.0,62,0.00,,---,0.00,VWS V13.01,2013-03-16 13:34:00,
2013-03-16 09:39:00,40.5,28.1,29.82,ESE,103,4.0,5.0,61,0.00,,---,0.00,VWS V13.01,2013-03-16 13:39:00,
2013-03-16 09:44:00,40.4,28.4,29.82,SE,127,4.0,6.0,62,0.00,,---,0.00,VWS V13.01,2013-03-16 13:44:00,
2013-03-16 09:49:00,40.4,28.8,29.82,West,269,0.0,2.0,63,0.00,,---,0.00,VWS V13.01,2013-03-16 13:49:00,
2013-03-16 09:54:00,40.2,28.6,29.82,ESE,113,1.0,1.0,63,0.00,,---,0.00,VWS V13.01,2013-03-16 13:54:00,
2013-03-16 09:59:00,40.2,29.0,29.82,ENE,72,5.0,5.0,64,0.00,,---,0.00,VWS V13.01,2013-03-16 13:59:00,
2013-03-16 10:04:00,40.1,28.9,29.82,SE,124,1.0,1.0,64,0.00,,---,0.00,VWS V13.01,2013-03-16 14:04:00,
2013-03-16 10:09:00,40.0,28.4,29.83,East,88,1.0,2.0,63,0.00,,---,0.00,VWS V13.01,2013-03-16 14:09:00,
2013-03-16 10:14:00,39.9,28.7,29.83,ENE,74,1.0,2.0,64,0.00,,---,0.00,VWS V13.01,2013-03-16 14:14:00,
2013-03-16 10:19:00,39.9,28.7,29.82,SE,125,3.0,5.0,64,0.00,,---,0.00,VWS V13.01,2013-03-16 14:19:00,
2013-03-16 10:24:00,39.8,28.2,29.82,East,84,1.0,3.0,63,0.00,,---,0.00,VWS V13.01,2013-03-16 14:24:00,
2013-03-16 10:29:00,39.8,28.2,29.82,ENE,78,0.0,1.0,63,0.00,,---,0.00,VWS V13.01,2013-03-16 14:29:00,
2013-03-16 10:34:00,39.9,28.3,29.82,NNE,23,2.0,3.0,63,0.00,,---,0.00,VWS V13.01,2013-03-16 14:34:00,
2013-03-16 10:39:00,40.0,27.6,29.82,ESE,113,2.0,4.0,61,0.00,,---,0.00,VWS V13.01,2013-03-16 14:39:00,
2013-03-16 10:44:00,40.1,27.4,29.82,SE,128,2.0,2.0,60,0.00,,---,0.00,VWS V13.01,2013-03-16 14:44:00,
2013-03-16 10:49:00,40.2,27.0,29.83,NE,50,1.0,4.0,59,0.00,,---,0.00,VWS V13.01,2013-03-16 14:49:00,
2013-03-16 10:54:00,40.2,27.0,29.83,NE,50,0.0,1.0,59,0.00,,---,0.00,VWS V13.01,2013-03-16 14:54:00,
2013-03-16 10:59:00,40.1,27.4,29.83,WSW,244,0.0,0.0,60,0.00,,---,0.00,VWS V13.01,2013-03-16 14:59:00,
2013-03-16 11:04:00,40.0,27.6,29.83,NE,44,3.0,3.0,61,0.00,,---,0.00,VWS V13.01,2013-03-16 15:04:00,
2013-03-16 11:09:00,40.0,27.6,29.83,NE,44,3.0,4.0,61,0.00,,---,0.00,VWS V13.01,2013-03-16 15:09:00,
2013-03-16 11:14:00,40.0,28.0,29.83,ENE,59,4.0,4.0,62,0.00,,---,0.00,VWS V13.01,2013-03-16 15:14:00,
2013-03-16 11:19:00,40.2,28.6,29.83,NE,46,0.0,1.0,63,0.00,,---,0.00,VWS V13.01,2013-03-16 15:19:00,
2013-03-16 11:24:00,40.2,28.6,29.83,ENE,67,2.0,2.0,63,0.00,,---,0.00,VWS V13.01,2013-03-16 15:24:00,
2013-03-16 11:29:00,40.2,28.2,29.83,ENE,66,4.0,5.0,62,0.00,,---,0.00,VWS V13.01,2013-03-16 15:29:00,
2013-03-16 11:34:00,40.2,28.2,29.83,ENE,66,2.0,3.0,62,0.00,,---,0.00,VWS V13.01,2013-03-16 15:34:00,
2013-03-16 11:39:00,40.3,28.3,29.83,NE,40,5.0,5.0,62,0.00,,---,0.00,VWS V13.01,2013-03-16 15:39:00,
2013-03-16 11:45:00,40.4,28.8,29.82,East,95,6.0,8.0,63,0.00,,---,0.00,VWS V13.01,2013-03-16 15:45:00,
2013-03-16 11:50:00,40.3,28.3,29.83,ESE,113,0.0,2.0,62,0.00,,---,0.00,VWS V13.01,2013-03-16 15:50:00,
2013-03-16 11:55:00,40.1,28.1,29.83,NNE,32,1.0,3.0,62,0.00,,---,0.00,VWS V13.01,2013-03-16 15:55:00,
2013-03-16 12:00:00,39.9,28.3,29.83,ENE,69,0.0,2.0,63,0.00,,---,0.00,VWS V13.01,2013-03-16 16:00:00,
2013-03-16 12:05:00,39.8,28.6,29.83,ESE,109,6.0,6.0,64,0.00,,---,0.00,VWS V13.01,2013-03-16 16:05:00,
2013-03-16 12:10:00,39.8,29.8,29.83,NE,50,1.0,4.0,67,0.00,,---,0.00,VWS V13.01,2013-03-16 16:10:00,
2013-03-16 12:15:00,39.5,29.5,29.83,East,96,2.0,2.0,67,0.00,,---,0.00,VWS V13.01,2013-03-16 16:15:00,
2013-03-16 12:20:00,39.3,29.3,29.82,East,96,2.0,2.0,67,0.00,,---,0.00,VWS V13.01,2013-03-16 16:20:00,
2013-03-16 12:25:00,39.0,29.7,29.82,NNE,20,0.0,0.0,69,0.00,,---,0.00,VWS V13.01,2013-03-16 16:25:00,
2013-03-16 12:30:00,38.7,29.8,29.82,ESE,117,3.0,4.0,70,0.00,,---,0.00,VWS V13.01,2013-03-16 16:30:00,
2013-03-16 12:35:00,38.4,30.2,29.82,ENE,74,1.0,1.0,72,0.00,,---,0.00,VWS V13.01,2013-03-16 16:35:00,
2013-03-16 12:40:00,38.2,30.7,29.82,ESE,109,1.0,2.0,74,0.00,,---,0.00,VWS V13.01,2013-03-16 16:40:00,
2013-03-16 12:45:00,38.1,30.9,29.81,NE,51,1.0,2.0,75,0.00,,---,0.00,VWS V13.01,2013-03-16 16:45:00,
2013-03-16 12:50:00,37.9,31.4,29.81,ENE,69,3.0,3.0,77,0.00,,---,0.00,VWS V13.01,2013-03-16 16:50:00,
2013-03-16 12:55:00,37.6,31.4,29.80,SSE,168,1.0,5.0,78,0.00,,---,0.00,VWS V13.01,2013-03-16 16:55:00,
2013-03-16 13:00:00,37.1,31.5,29.80,ENE,76,1.0,1.0,80,0.00,,---,0.00,VWS V13.01,2013-03-16 17:00:00,
2013-03-16 13:05:00,36.8,31.8,29.80,ESE,122,3.0,3.0,82,0.00,,---,0.00,VWS V13.01,2013-03-16 17:05:00,
2013-03-16 13:10:00,36.4,32.0,29.81,NE,51,3.0,3.0,84,0.00,,---,0.00,VWS V13.01,2013-03-16 17:10:00,
2013-03-16 13:15:00,36.1,31.7,29.80,ENE,78,3.0,4.0,84,0.00,,---,0.00,VWS V13.01,2013-03-16 17:15:00,
2013-03-16 13:20:00,35.9,31.8,29.80,East,97,0.0,1.0,85,0.00,,---,0.00,VWS V13.01,2013-03-16 17:20:00,
2013-03-16 13:25:00,35.6,31.8,29.80,ENE,59,0.0,1.0,86,0.00,,---,0.00,VWS V13.01,2013-03-16 17:25:00,
2013-03-16 13:30:00,35.5,31.7,29.80,NNE,30,0.0,0.0,86,0.00,,---,0.00,VWS V13.01,2013-03-16 17:30:00,
2013-03-16 13:35:00,35.5,32.0,29.79,NE,49,1.0,1.0,87,0.00,,---,0.00,VWS V13.01,2013-03-16 17:35:00,
2013-03-16 13:40:00,35.5,32.0,29.79,NNE,29,2.0,2.0,87,0.00,,---,0.00,VWS V13.01,2013-03-16 17:40:00,
2013-03-16 13:45:00,35.6,32.1,29.79,NNW,348,0.0,0.0,87,0.00,,---,0.00,VWS V13.01,2013-03-16 17:45:00,
2013-03-16 13:50:00,35.6,31.8,29.80,ENE,64,0.0,0.0,86,0.00,,---,0.00,VWS V13.01,2013-03-16 17:50:00,
2013-03-16 13:55:00,35.7,31.9,29.79,East,98,1.0,3.0,86,0.00,,---,0.00,VWS V13.01,2013-03-16 17:55:00,
2013-03-16 14:00:00,35.7,31.9,29.78,ESE,117,1.0,3.0,86,0.00,,---,0.00,VWS V13.01,2013-03-16 18:00:00,
2013-03-16 14:05:00,35.7,31.9,29.78,ENE,67,3.0,3.0,86,0.00,,---,0.00,VWS V13.01,2013-03-16 18:05:00,
2013-03-16 14:10:00,35.8,32.0,29.78,ENE,72,0.0,0.0,86,0.00,,---,0.00,VWS V13.01,2013-03-16 18:10:00,
2013-03-16 14:15:00,36.0,32.2,29.77,East,88,2.0,3.0,86,0.00,,---,0.00,VWS V13.01,2013-03-16 18:15:00,
2013-03-16 14:20:00,36.2,32.7,29.77,ESE,104,0.0,3.0,87,0.00,,---,0.00,VWS V13.01,2013-03-16 18:20:00,
2013-03-16 14:25:00,36.2,32.4,29.77,ESE,105,1.0,1.0,86,0.00,,---,0.00,VWS V13.01,2013-03-16 18:25:00,
2013-03-16 14:30:00,36.2,32.4,29.77,NNE,27,2.0,2.0,86,0.00,,---,0.00,VWS V13.01,2013-03-16 18:30:00,
2013-03-16 14:35:00,36.3,32.5,29.76,NE,40,0.0,5.0,86,0.00,,---,0.00,VWS V13.01,2013-03-16 18:35:00,
2013-03-16 14:40:00,36.4,32.9,29.76,ENE,69,1.0,4.0,87,0.00,,---,0.00,VWS V13.01,2013-03-16 18:40:00,
2013-03-16 14:45:00,36.3,32.8,29.76,NE,46,2.0,3.0,87,0.00,,---,0.00,VWS V13.01,2013-03-16 18:45:00,
2013-03-16 14:50:00,36.4,32.9,29.76,NNE,29,3.0,3.0,87,0.00,,---,0.00,VWS V13.01,2013-03-16 18:50:00,
2013-03-16 14:55:00,36.5,33.3,29.77,East,79,2.0,4.0,88,0.00,,---,0.00,VWS V13.01,2013-03-16 18:55:00,
2013-03-16 15:00:00,36.6,33.4,29.77,ESE,123,1.0,3.0,88,0.00,,---,0.00,VWS V13.01,2013-03-16 19:00:00,
2013-03-16 15:05:00,36.6,33.4,29.77,ESE,119,2.0,2.0,88,0.00,,---,0.00,VWS V13.01,2013-03-16 19:05:00,
2013-03-16 15:10:00,36.5,33.3,29.77,ESE,113,0.0,0.0,88,0.00,,---,0.00,VWS V13.01,2013-03-16 19:10:00,
2013-03-16 15:15:00,36.6,33.4,29.77,NE,55,3.0,3.0,88,0.00,,---,0.00,VWS V13.01,2013-03-16 19:15:00,
2013-03-16 15:20:00,36.5,33.3,29.77,NE,55,0.0,1.0,88,0.00,,---,0.00,VWS V13.01,2013-03-16 19:20:00,
2013-03-16 15:25:00,36.5,33.3,29.77,WNW,296,0.0,4.0,88,0.00,,---,0.00,VWS V13.01,2013-03-16 19:25:00,
2013-03-16 15:30:00,36.4,33.2,29.77,NW,304,0.0,2.0,88,0.00,,---,0.00,VWS V13.01,2013-03-16 19:30:00,
2013-03-16 15:35:00,36.3,33.4,29.77,NNE,12,0.0,1.0,89,0.00,,---,0.00,VWS V13.01,2013-03-16 19:35:00,
2013-03-16 15:40:00,36.2,33.3,29.76,East,92,0.0,2.0,89,0.00,,---,0.00,VWS V13.01,2013-03-16 19:40:00,
2013-03-16 15:45:00,36.3,33.7,29.76,East,88,1.0,3.0,90,0.00,,---,0.00,VWS V13.01,2013-03-16 19:45:00,
2013-03-16 15:50:00,36.2,33.6,29.75,NE,42,2.0,5.0,90,0.00,,---,0.00,VWS V13.01,2013-03-16 19:50:00,
2013-03-16 15:55:00,36.1,33.5,29.74,ESE,107,1.0,2.0,90,0.00,,---,0.00,VWS V13.01,2013-03-16 19:55:00,
2013-03-16 16:00:00,36.0,33.4,29.73,ENE,74,2.0,4.0,90,0.00,,---,0.00,VWS V13.01,2013-03-16 20:00:00,
2013-03-16 16:05:00,35.8,33.2,29.73,NE,49,3.0,4.0,90,0.01,,---,0.01,VWS V13.01,2013-03-16 20:05:00,
2013-03-16 16:10:00,35.7,33.1,29.73,ESE,110,0.0,6.0,90,0.01,,---,0.01,VWS V13.01,2013-03-16 20:10:00,
2013-03-16 16:15:00,35.7,33.3,29.74,ENE,64,1.0,4.0,91,0.01,,---,0.01,VWS V13.01,2013-03-16 20:15:00,
2013-03-16 16:20:00,35.7,33.3,29.75,NE,36,2.0,2.0,91,0.01,,---,0.01,VWS V13.01,2013-03-16 20:20:00,
2013-03-16 16:25:00,35.8,33.4,29.76,NE,40,0.0,1.0,91,0.01,,---,0.01,VWS V13.01,2013-03-16 20:25:00,
2013-03-16 16:30:00,35.8,33.4,29.77,ENE,60,3.0,4.0,91,0.01,,---,0.01,VWS V13.01,2013-03-16 20:30:00,
2013-03-16 16:35:00,35.6,33.2,29.75,NE,34,2.0,2.0,91,0.01,,---,0.01,VWS V13.01,2013-03-16 20:35:00,
2013-03-16 16:40:00,35.5,33.1,29.76,East,80,1.0,1.0,91,0.01,,---,0.01,VWS V13.01,2013-03-16 20:40:00,
2013-03-16 16:45:00,35.2,32.8,29.77,East,94,3.0,6.0,91,0.01,,---,0.01,VWS V13.01,2013-03-16 20:45:00,
2013-03-16 16:50:00,35.1,32.7,29.76,ENE,68,2.0,2.0,91,0.01,,---,0.01,VWS V13.01,2013-03-16 20:50:00,
2013-03-16 16:55:00,34.9,32.5,29.76,NNE,24,2.0,2.0,91,0.01,,---,0.01,VWS V13.01,2013-03-16 20:55:00,
2013-03-16 17:00:00,34.8,32.7,29.74,ENE,66,5.0,5.0,92,0.01,,---,0.01,VWS V13.01,2013-03-16 21:00:00,
2013-03-16 17:05:00,34.6,32.5,29.76,North,350,0.0,1.0,92,0.00,,---,0.01,VWS V13.01,2013-03-16 21:05:00,
2013-03-16 17:10:00,34.5,32.4,29.75,NE,35,3.0,5.0,92,0.00,,---,0.01,VWS V13.01,2013-03-16 21:10:00,
2013-03-16 17:15:00,34.5,32.4,29.75,NE,51,3.0,3.0,92,0.00,,---,0.01,VWS V13.01,2013-03-16 21:15:00,
2013-03-16 17:20:00,34.5,32.4,29.75,East,89,2.0,4.0,92,0.00,,---,0.01,VWS V13.01,2013-03-16 21:20:00,
2013-03-16 17:25:00,34.4,32.3,29.75,SE,133,0.0,3.0,92,0.00,,---,0.01,VWS V13.01,2013-03-16 21:25:00,
2013-03-16 17:30:00,34.4,32.3,29.75,ENE,78,2.0,5.0,92,0.00,,---,0.01,VWS V13.01,2013-03-16 21:30:00,
2013-03-16 17:35:00,34.4,32.6,29.75,NE,54,2.0,4.0,93,0.01,,---,0.02,VWS V13.01,2013-03-16 21:35:00,
2013-03-16 17:40:00,34.4,32.6,29.75,ESE,115,3.0,5.0,93,0.01,,---,0.02,VWS V13.01,2013-03-16 21:40:00,
2013-03-16 17:45:00,34.4,32.6,29.75,ENE,69,4.0,6.0,93,0.01,,---,0.03,VWS V13.01,2013-03-16 21:45:00,
2013-03-16 17:50:00,34.5,32.7,29.76,ESE,107,1.0,1.0,93,0.02,,---,0.03,VWS V13.01,2013-03-16 21:50:00,
2013-03-16 17:55:00,34.6,32.8,29.76,East,88,1.0,1.0,93,0.02,,---,0.03,VWS V13.01,2013-03-16 21:55:00,
2013-03-16 18:00:00,34.6,32.8,29.76,SE,133,0.0,2.0,93,0.02,,---,0.03,VWS V13.01,2013-03-16 22:00:00,
2013-03-16 18:05:00,34.7,32.9,29.76,East,89,0.0,1.0,93,0.02,,---,0.03,VWS V13.01,2013-03-16 22:05:00,
2013-03-16 18:10:00,34.8,33.0,29.76,ESE,103,1.0,1.0,93,0.02,,---,0.03,VWS V13.01,2013-03-16 22:10:00,
2013-03-16 18:15:00,34.8,33.0,29.76,ESE,117,2.0,5.0,93,0.02,,---,0.03,VWS V13.01,2013-03-16 22:15:00,
2013-03-16 18:20:00,34.9,33.1,29.76,East,95,3.0,4.0,93,0.02,,---,0.03,VWS V13.01,2013-03-16 22:20:00,
2013-03-16 18:25:00,34.9,33.1,29.76,ENE,71,1.0,4.0,93,0.02,,---,0.03,VWS V13.01,2013-03-16 22:25:00,
2013-03-16 18:30:00,34.9,33.1,29.76,ESE,105,1.0,3.0,93,0.02,,---,0.03,VWS V13.01,2013-03-16 22:30:00,
2013-03-16 18:35:00,34.9,33.1,29.76,SE,128,2.0,4.0,93,0.01,,---,0.03,VWS V13.01,2013-03-16 22:35:00,
2013-03-16 18:40:00,35.0,33.2,29.76,ENE,77,3.0,5.0,93,0.01,,---,0.03,VWS V13.01,2013-03-16 22:40:00,
2013-03-16 18:45:00,35.0,33.2,29.75,East,90,1.0,4.0,93,0.02,,---,0.04,VWS V13.01,2013-03-16 22:45:00,
2013-03-16 18:50:00,35.1,33.3,29.76,SE,131,2.0,2.0,93,0.01,,---,0.04,VWS V13.01,2013-03-16 22:50:00,
2013-03-16 18:55:00,35.2,33.4,29.76,NNW,348,2.0,2.0,93,0.01,,---,0.04,VWS V13.01,2013-03-16 22:55:00,
2013-03-16 19:00:00,35.2,33.4,29.76,ENE,76,4.0,5.0,93,0.01,,---,0.04,VWS V13.01,2013-03-16 23:00:00,
2013-03-16 19:05:00,35.3,33.5,29.76,ENE,67,1.0,4.0,93,0.01,,---,0.04,VWS V13.01,2013-03-16 23:05:00,
2013-03-16 19:10:00,35.3,33.5,29.76,East,83,0.0,2.0,93,0.01,,---,0.04,VWS V13.01,2013-03-16 23:10:00,
2013-03-16 19:15:00,35.4,33.6,29.77,ESE,113,3.0,3.0,93,0.01,,---,0.04,VWS V13.01,2013-03-16 23:15:00,
2013-03-16 19:20:00,35.4,33.6,29.76,East,96,0.0,2.0,93,0.01,,---,0.04,VWS V13.01,2013-03-16 23:20:00,
2013-03-16 19:25:00,35.5,33.7,29.76,ESE,106,3.0,3.0,93,0.02,,---,0.05,VWS V13.01,2013-03-16 23:25:00,
2013-03-16 19:30:00,35.6,33.8,29.76,SE,136,0.0,1.0,93,0.02,,---,0.05,VWS V13.01,2013-03-16 23:30:00,
2013-03-16 19:35:00,35.7,33.9,29.77,East,97,1.0,4.0,93,0.02,,---,0.05,VWS V13.01,2013-03-16 23:35:00,
2013-03-16 19:40:00,35.8,34.0,29.77,SE,142,1.0,2.0,93,0.02,,---,0.05,VWS V13.01,2013-03-16 23:40:00,
2013-03-16 19:45:00,35.9,34.1,29.77,East,89,0.0,3.0,93,0.01,,---,0.05,VWS V13.01,2013-03-16 23:45:00,
2013-03-16 19:50:00,35.9,34.1,29.78,East,100,1.0,3.0,93,0.01,,---,0.05,VWS V13.01,2013-03-16 23:50:00,
2013-03-16 19:55:00,36.0,34.2,29.78,ENE,70,4.0,4.0,93,0.01,,---,0.05,VWS V13.01,2013-03-16 23:55:00,
2013-03-16 20:00:00,36.0,34.2,29.78,SE,146,0.0,1.0,93,0.01,,---,0.05,VWS V13.01,2013-03-17 00:00:00,
2013-03-16 20:05:00,36.0,34.2,29.78,ESE,110,1.0,1.0,93,0.01,,---,0.05,VWS V13.01,2013-03-17 00:05:00,
2013-03-16 20:10:00,36.1,34.3,29.79,East,80,1.0,3.0,93,0.01,,---,0.05,VWS V13.01,2013-03-17 00:10:00,
2013-03-16 20:15:00,36.1,34.3,29.79,ENE,65,0.0,0.0,93,0.01,,---,0.05,VWS V13.01,2013-03-17 00:15:00,
2013-03-16 20:20:00,36.1,34.3,29.80,East,84,0.0,1.0,93,0.01,,---,0.05,VWS V13.01,2013-03-17 00:20:00,
2013-03-16 20:25:00,36.1,34.3,29.80,NE,35,0.0,1.0,93,0.00,,---,0.05,VWS V13.01,2013-03-17 00:25:00,
2013-03-16 20:30:00,36.1,34.0,29.80,East,89,0.0,1.0,92,0.00,,---,0.05,VWS V13.01,2013-03-17 00:30:00,
2013-03-16 20:35:00,36.0,33.9,29.80,East,87,0.0,1.0,92,0.00,,---,0.05,VWS V13.01,2013-03-17 00:35:00,
2013-03-16 20:40:00,36.0,33.9,29.81,NNE,32,1.0,1.0,92,0.00,,---,0.05,VWS V13.01,2013-03-17 00:40:00,
2013-03-16 20:45:00,35.9,33.8,29.81,East,88,0.0,1.0,92,0.00,,---,0.05,VWS V13.01,2013-03-17 00:45:00,
2013-03-16 20:49:00,35.9,33.8,29.81,ESE,113,0.0,0.0,92,0.00,,---,0.05,VWS V13.01,2013-03-17 00:49:00,
2013-03-16 20:54:00,35.9,33.8,29.82,NE,47,0.0,0.0,92,0.00,,---,0.05,VWS V13.01,2013-03-17 00:54:00,
2013-03-16 20:59:00,35.8,33.7,29.82,SE,125,0.0,3.0,92,0.00,,---,0.05,VWS V13.01,2013-03-17 00:59:00,
2013-03-16 21:04:00,35.7,33.6,29.82,NE,42,0.0,1.0,92,0.01,,---,0.06,VWS V13.01,2013-03-17 01:04:00,
2013-03-16 21:09:00,35.6,33.8,29.83,NNW,342,0.0,1.0,93,0.01,,---,0.06,VWS V13.01,2013-03-17 01:09:00,
2013-03-16 21:14:00,35.5,33.7,29.83,NNW,338,2.0,2.0,93,0.01,,---,0.06,VWS V13.01,2013-03-17 01:14:00,
2013-03-16 21:19:00,35.4,33.6,29.83,NW,318,1.0,2.0,93,0.01,,---,0.06,VWS V13.01,2013-03-17 01:19:00,
2013-03-16 21:24:00,35.4,33.6,29.83,ENE,65,0.0,1.0,93,0.01,,---,0.06,VWS V13.01,2013-03-17 01:24:00,
2013-03-16 21:29:00,35.3,33.5,29.83,NNE,28,1.0,4.0,93,0.01,,---,0.06,VWS V13.01,2013-03-17 01:29:00,
2013-03-16 21:34:00,35.2,33.4,29.83,NE,34,2.0,2.0,93,0.01,,---,0.06,VWS V13.01,2013-03-17 01:34:00,
2013-03-16 21:39:00,35.1,33.3,29.83,NNE,16,0.0,0.0,93,0.01,,---,0.06,VWS V13.01,2013-03-17 01:39:00,
2013-03-16 21:44:00,35.1,33.3,29.84,NE,42,0.0,3.0,93,0.01,,---,0.06,VWS V13.01,2013-03-17 01:44:00,
2013-03-16 21:49:00,35.1,33.3,29.84,NNW,343,0.0,1.0,93,0.01,,---,0.06,VWS V13.01,2013-03-17 01:49:00,
2013-03-16 21:54:00,35.0,33.2,29.84,NNE,30,0.0,1.0,93,0.01,,---,0.06,VWS V13.01,2013-03-17 01:54:00,
2013-03-16 21:59:00,35.0,33.2,29.85,NNW,347,0.0,1.0,93,0.01,,---,0.06,VWS V13.01,2013-03-17 01:59:00,
2013-03-16 22:04:00,35.0,33.2,29.85,ENE,74,0.0,0.0,93,0.01,,---,0.07,VWS V13.01,2013-03-17 02:04:00,
2013-03-16 22:09:00,35.0,33.2,29.85,NNW,343,1.0,1.0,93,0.01,,---,0.07,VWS V13.01,2013-03-17 02:09:00,
2013-03-16 22:14:00,34.9,33.1,29.85,NNW,348,3.0,3.0,93,0.01,,---,0.07,VWS V13.01,2013-03-17 02:14:00,
2013-03-16 22:19:00,34.9,33.1,29.85,ENE,65,0.0,0.0,93,0.01,,---,0.07,VWS V13.01,2013-03-17 02:19:00,
2013-03-16 22:24:00,34.8,33.0,29.85,NNW,344,0.0,1.0,93,0.01,,---,0.07,VWS V13.01,2013-03-17 02:24:00,
2013-03-16 22:29:00,34.8,33.0,29.86,NNW,344,0.0,0.0,93,0.01,,---,0.07,VWS V13.01,2013-03-17 02:29:00,
2013-03-16 22:34:00,34.8,33.0,29.85,NE,35,0.0,0.0,93,0.01,,---,0.07,VWS V13.01,2013-03-17 02:34:00,
2013-03-16 22:39:00,34.8,33.0,29.86,NNW,341,0.0,0.0,93,0.01,,---,0.07,VWS V13.01,2013-03-17 02:39:00,
2013-03-16 22:44:00,34.8,33.0,29.86,NNW,344,0.0,0.0,93,0.01,,---,0.07,VWS V13.01,2013-03-17 02:44:00,
2013-03-16 22:49:00,34.8,33.0,29.87,NNW,327,1.0,2.0,93,0.01,,---,0.07,VWS V13.01,2013-03-17 02:49:00,
2013-03-16 22:54:00,34.8,33.0,29.88,NW,322,2.0,2.0,93,0.01,,---,0.07,VWS V13.01,2013-03-17 02:54:00,
2013-03-16 22:59:00,34.8,33.0,29.88,ENE,67,0.0,0.0,93,0.01,,---,0.07,VWS V13.01,2013-03-17 02:59:00,
2013-03-16 23:04:00,34.8,33.0,29.88,NNW,345,2.0,2.0,93,0.00,,---,0.07,VWS V13.01,2013-03-17 03:04:00,
2013-03-16 23:09:00,34.8,33.0,29.88,NW,316,0.0,0.0,93,0.00,,---,0.07,VWS V13.01,2013-03-17 03:09:00,
2013-03-16 23:14:00,34.8,33.0,29.87,NW,317,0.0,0.0,93,0.00,,---,0.07,VWS V13.01,2013-03-17 03:14:00,
2013-03-16 23:19:00,34.7,32.9,29.87,NNE,15,0.0,2.0,93,0.00,,---,0.07,VWS V13.01,2013-03-17 03:19:00,
2013-03-16 23:24:00,34.8,33.0,29.88,NNE,22,2.0,2.0,93,0.00,,---,0.07,VWS V13.01,2013-03-17 03:24:00,
2013-03-16 23:29:00,34.8,33.0,29.88,NNE,16,0.0,0.0,93,0.00,,---,0.07,VWS V13.01,2013-03-17 03:29:00,
2013-03-16 23:34:00,34.8,33.0,29.89,NNE,12,1.0,1.0,93,0.00,,---,0.07,VWS V13.01,2013-03-17 03:34:00,
2013-03-16 23:39:00,34.8,33.0,29.89,NNE,28,0.0,0.0,93,0.00,,---,0.07,VWS V13.01,2013-03-17 03:39:00,
2013-03-16 23:44:00,34.8,33.0,29.89,NNE,23,0.0,1.0,93,0.00,,---,0.07,VWS V13.01,2013-03-17 03:44:00,
2013-03-16 23:49:00,34.8,33.0,29.89,North,355,0.0,1.0,93,0.00,,---,0.07,VWS V13.01,2013-03-17 03:49:00,
2013-03-16 23:54:00,34.8,33.0,29.89,North,350,1.0,1.0,93,0.00,,---,0.07,VWS V13.01,2013-03-17 03:54:00,
2013-03-16 23:59:00,34.9,33.1,29.89,NNW,342,0.0,0.0,93,0.00,,---,0.07,VWS V13.01,2013-03-17 03:59:00,